Date,TemperatureHighF,TemperatureAvgF,TemperatureLowF,DewpointHighF,DewpointAvgF,DewpointLowF,HumidityHigh,HumidityAvg,HumidityLow,PressureMaxIn,PressureMinIn,WindSpeedMaxMPH,WindSpeedAvgMPH,GustSpeedMaxMPH,PrecipitationSumIn
2012-10-4,79.5,71.9,59.5,64.3,60.9,58.7,97,71,54,30.52,30.46,8,2,10,0.00
2012-10-5,71.6,57.0,42.6,61.7,54.2,42.4,99,91,65,30.49,30.32,11,3,14,0.59
2012-10-6,60.4,48.1,37.2,47.8,40.3,35.8,99,77,46,30.55,30.44,6,2,6,0.01
2012-10-7,60.3,47.7,37.0,42.1,38.2,35.1,97,71,45,30.56,30.48,8,2,9,0.00
2012-10-8,69.6,46.1,34.9,53.6,38.5,34.6,99,79,35,30.58,30.45,6,1,8,0.00
2012-10-9,72.1,50.3,34.3,53.7,42.1,34.1,99,78,44,30.49,30.30,9,2,11,0.00
2012-10-10,62.4,49.7,35.6,50.0,40.4,31.3,97,73,41,30.60,30.29,9,2,12,0.00
2012-10-11,67.8,45.3,30.7,45.7,38.5,30.5,99,80,38,30.64,30.51,7,0,7,0.04
2012-10-12,73.0,56.8,45.5,57.4,49.3,42.7,99,78,49,30.67,30.51,5,1,8,0.05
2012-10-13,77.5,63.3,49.3,69.2,57.9,46.5,91,83,73,30.61,30.32,8,2,11,0.00
2012-10-14,75.6,69.3,59.0,67.8,63.7,53.2,97,83,63,30.31,30.06,12,5,16,0.08
2012-10-15,70.3,55.9,45.1,55.2,47.0,43.0,99,75,43,30.32,30.22,10,2,13,0.00
2012-10-16,72.7,57.1,39.2,54.7,48.2,38.9,99,76,46,30.33,30.08,10,2,10,0.00
2012-10-17,75.7,65.0,54.1,58.6,54.4,52.3,97,71,48,30.11,29.79,14,4,17,0.18
2012-10-18,68.4,58.4,50.0,58.4,46.6,34.6,99,69,34,30.00,29.79,12,3,13,0.21
2012-10-19,55.6,52.1,47.3,50.4,44.8,39.0,94,77,54,30.11,29.90,11,2,26,0.06
2012-10-20,58.1,50.7,42.8,49.9,47.1,42.5,99,88,72,30.33,30.10,4,1,4,0.01
2012-10-21,75.0,58.7,40.8,57.5,50.2,40.6,99,77,49,30.41,30.32,8,1,8,0.00
2012-10-22,82.2,72.2,65.1,62.7,57.9,55.2,73,61,48,30.43,30.31,11,2,11,0.00
2012-10-23,82.6,69.7,60.3,61.1,56.4,52.0,77,63,46,30.40,30.30,11,2,11,0.00
2012-10-24,81.7,69.4,59.9,65.3,58.2,53.1,83,68,52,30.42,30.31,9,2,10,0.00
2012-10-25,82.4,69.3,56.7,64.5,59.1,53.5,90,71,54,30.35,30.23,11,2,16,0.00
2012-10-26,69.8,47.8,43.9,60.0,45.9,41.6,99,93,70,30.55,30.26,12,4,14,0.61
2012-10-27,57.7,47.9,37.8,41.7,37.8,34.3,91,70,47,30.51,30.42,11,4,11,0.00
2012-10-28,57.0,45.2,38.1,42.5,36.5,32.8,94,73,51,30.48,30.42,11,4,12,0.00
2012-10-29,54.7,45.5,36.1,35.6,33.3,29.1,88,64,39,30.50,30.28,16,6,19,0.00
2012-10-30,48.2,44.6,40.5,35.1,33.4,31.5,73,65,54,30.28,30.08,14,5,14,0.00
2012-10-31,52.5,43.5,34.5,36.6,32.4,28.6,84,65,48,30.25,30.12,10,2,11,0.00
2012-11-1,59.0,42.1,24.8,39.0,30.4,21.3,97,68,26,30.32,30.21,8,1,8,0.00
2012-11-2,60.6,48.0,38.5,41.0,37.6,34.5,91,69,44,30.41,30.19,7,1,8,0.00
2012-11-3,48.7,42.4,34.9,42.3,37.9,33.1,94,84,76,30.48,30.34,10,2,11,0.05
2012-11-4,52.9,40.2,30.2,41.7,35.0,29.8,99,83,60,30.55,30.46,7,1,8,0.00
2012-11-5,54.0,40.4,27.3,41.1,32.3,27.1,99,75,49,30.51,30.40,5,1,6,0.00
2012-11-6,64.0,45.3,30.7,42.5,36.9,29.0,99,74,44,30.40,30.24,4,1,4,0.04
2012-11-7,48.7,44.4,36.0,45.7,42.8,35.6,99,94,83,30.49,30.21,4,1,6,0.05
2012-11-8,52.7,39.3,32.0,46.2,37.2,31.8,99,93,71,30.60,30.49,4,0,4,0.00
2012-11-9,65.1,50.6,30.6,48.6,41.6,30.3,99,74,51,30.55,30.40,8,2,10,0.00
2012-11-10,72.0,61.5,50.7,54.6,48.7,42.7,75,63,51,30.51,30.41,11,3,13,0.00
2012-11-11,70.0,63.8,56.7,56.9,49.7,45.0,94,61,49,30.50,30.30,17,6,19,0.11
2012-11-12,59.5,42.7,27.9,58.2,37.9,26.6,99,85,51,30.76,30.29,11,3,17,0.60
2012-11-13,54.3,35.2,23.9,39.6,27.5,23.7,99,76,43,30.86,30.76,7,1,8,0.00
2012-11-14,29.5,28.3,27.7,26.6,25.7,24.7,92,90,83,30.83,30.81,1,0,1,0.00
2012-11-15,52.9,37.1,24.1,38.5,30.9,23.4,98,81,55,30.72,30.65,4,1,4,0.00
2012-11-16,53.2,37.7,25.3,38.9,30.3,25.1,99,76,38,30.79,30.69,4,0,4,0.00
2012-11-17,58.6,40.6,25.7,43.0,32.8,25.2,99,77,47,30.86,30.73,6,1,6,0.00
2012-11-18,69.4,44.0,28.0,45.7,34.0,27.6,98,72,35,30.76,30.66,3,0,4,0.00
2012-11-19,68.0,46.8,30.9,46.3,38.4,30.2,98,75,41,30.69,30.50,3,0,6,0.00
2012-11-20,68.9,54.5,39.4,50.9,45.7,37.5,94,74,49,30.50,30.37,5,1,7,0.00
2012-11-21,65.7,50.4,37.8,52.1,44.6,37.5,99,82,59,30.59,30.47,5,1,6,0.00
2012-11-22,65.7,50.6,32.5,51.8,43.0,32.3,99,77,55,30.54,30.35,8,2,10,0.00
2012-11-23,58.5,46.4,30.2,53.7,36.2,21.3,94,68,50,30.60,30.34,11,3,12,0.01
2012-11-24,37.2,28.6,22.3,25.2,21.8,18.2,88,76,60,30.65,30.44,7,1,8,0.00
2012-11-25,55.8,39.8,26.1,34.6,29.2,22.5,88,68,42,30.45,30.24,8,2,9,0.00
2012-11-26,49.6,39.5,27.5,40.0,33.2,26.5,97,79,63,30.59,30.38,7,2,11,0.01
2012-11-27,45.7,35.5,24.3,34.4,29.6,22.5,94,80,60,30.72,30.58,7,2,9,0.01
2012-11-28,52.7,31.6,20.1,37.4,25.4,19.2,96,80,51,30.79,30.66,4,0,4,0.00
2012-11-29,52.9,39.1,22.3,36.6,30.4,21.1,95,73,51,30.72,30.55,8,2,8,0.00
2012-11-30,59.7,50.5,41.2,44.9,39.6,31.6,83,66,55,30.56,30.45,10,2,13,0.00
2012-12-1,64.0,56.9,46.4,51.6,47.3,41.4,83,71,58,30.56,30.42,9,2,9,0.00
2012-12-2,63.5,60.9,58.1,62.6,58.3,51.6,99,92,72,30.45,30.37,9,3,14,0.11
2012-12-3,73.6,66.3,61.0,63.3,60.1,54.5,98,81,66,30.46,30.36,9,4,18,0.01
2012-12-4,66.2,58.5,40.5,62.0,54.1,40.2,99,86,68,30.59,30.35,11,3,11,0.17
2012-12-5,60.1,43.3,33.1,53.2,37.8,32.8,99,83,55,30.70,30.55,5,1,6,0.00
2012-12-6,55.6,45.3,35.1,50.5,40.8,32.2,99,84,62,30.55,30.30,5,2,6,0.01
2012-12-7,57.9,54.5,50.5,57.7,54.2,50.3,99,99,99,30.31,30.16,6,2,8,0.20
2012-12-8,57.0,52.9,48.6,56.8,52.3,47.4,99,98,94,30.33,30.17,8,2,8,0.04
2012-12-9,64.9,55.7,48.9,62.6,55.1,47.6,99,98,90,30.31,30.04,8,3,9,1.58
2012-12-10,52.3,37.5,32.0,52.1,34.8,28.3,99,90,84,30.35,30.09,9,3,12,0.00
2012-12-11,47.7,33.0,24.4,31.6,26.7,23.5,96,79,47,30.58,30.34,6,1,8,0.00
2012-12-12,50.9,31.8,21.2,37.8,26.1,21.0,99,82,51,30.73,30.58,4,1,5,0.00
2012-12-13,51.3,35.7,21.0,38.7,28.0,20.5,98,76,45,30.75,30.59,6,1,7,0.00
2012-12-14,56.8,41.7,26.6,35.2,30.6,23.8,91,67,41,30.64,30.43,8,1,10,0.00
2012-12-15,57.2,51.8,46.2,55.8,46.8,34.5,99,83,62,30.45,30.09,11,4,15,0.06
2012-12-16,68.2,55.3,43.0,60.7,52.7,42.7,99,92,71,30.11,30.00,5,2,8,0.00
2012-12-17,51.8,46.5,40.8,51.5,46.2,40.6,99,99,97,30.07,29.90,5,1,8,0.05
2012-12-18,51.8,43.7,37.9,41.9,39.0,36.4,99,84,65,30.24,30.06,12,3,12,0.01
2012-12-19,54.5,43.4,30.0,46.7,37.7,29.0,99,81,63,30.40,30.13,8,2,9,0.00
2012-12-20,60.3,48.2,32.4,54.8,42.0,26.8,99,80,62,30.12,29.64,14,6,16,0.34
2012-12-21,35.6,31.1,26.4,27.0,23.6,19.6,88,74,58,30.56,30.08,16,5,24,0.00
2012-12-22,42.4,32.0,16.5,26.9,22.2,14.5,93,67,52,30.65,30.38,7,2,9,0.00
2012-12-23,55.8,42.1,31.6,40.4,32.7,22.0,91,70,49,30.38,30.21,4,1,5,0.00
2012-12-24,47.8,42.4,34.3,47.6,40.2,30.5,99,92,77,30.39,30.11,9,2,11,0.00
2012-12-25,37.0,34.6,31.8,33.1,31.1,29.8,99,87,77,30.51,30.22,17,4,17,0.00
2012-12-26,34.7,32.6,31.1,33.7,31.2,28.0,99,94,83,30.38,29.91,17,4,29,0.15
2012-12-27,38.5,32.3,30.2,32.5,29.3,28.0,95,89,77,30.53,30.38,5,0,8,0.00
2012-12-28,39.6,33.4,30.9,33.9,31.6,29.8,99,93,80,30.47,30.12,4,1,5,0.08
2012-12-29,37.0,30.5,25.7,33.9,28.5,20.7,99,92,81,30.66,30.10,10,2,11,0.04
2012-12-30,28.6,22.8,7.2,25.6,20.0,6.1,97,89,82,30.80,30.66,2,0,3,0.00
2012-12-31,28.6,28.6,28.6,25.2,25.2,25.2,87,87,87,30.80,30.80,1,1,1,0.00
2013-1-1,28.6,28.6,28.6,25.2,25.2,25.2,87,87,87,30.80,30.80,1,1,1,0.00